Praetorian SDA-606

operational
NORAD ID: 65569 Int'l Des: 2025-203 Owner: SDA Country: US
LEOCIRCULARPOLAR

Über Praetorian SDA-606

Beschreibung wird geladen...

Live-Position

3D-Globus wird geladen...

Nächste Überflüge

Höhenverlauf

Altitude vs Time

uPlot chart will show altitude changes over time

Zweizeiliger Elementsatz

1 65569U 25203E 26071.18164910 .00000269 00000-0 23306-3 0 9993
2 65569 81.3015 100.6922 0007224 95.1531 265.0450 13.83530276 25276
Epoch: 12. März 2026 • Age: 28 hours

Aktueller Status

Höhe 975.2 km
Geschwindigkeit 7.36 km/s
Subsatellitenpunkt -50.53°S, 147.88°W
Startdatum 10. Sept. 2025
Alter 0.5 years
Typ other

Technische Details

Klassifizierung Payload
Masse 300.00 kg
Trockenmasse 300.00 kg
Gesamtmasse 300.00 kg
Länge 1.00 m
Durchmesser 0.60 m
Spannweite 2.00 m
Form Box + panels
Hersteller YORKSS
Bus-Typ S-Class
Phasenstatus In Orbit
Besitzer/Staat SDA/US

Große Konstellationen

Loading constellations...